TimeCST,TemperatureF,Dew PointF,Humidity,Sea Level PressureIn,VisibilityMPH,Wind Direction,Wind SpeedMPH,Gust SpeedMPH,PrecipitationIn,Events,Conditions,WindDirDegrees,DateUTC
12:15 AM,24.8,19.4,80,30.29,10.0,South,4.6,-,N/A,,Clear,170,2013-01-07 06:15:00
12:35 AM,24.8,19.4,80,30.28,10.0,South,3.5,-,N/A,,Clear,180,2013-01-07 06:35:00
12:55 AM,24.8,21.2,86,30.27,10.0,South,3.5,-,N/A,,Clear,180,2013-01-07 06:55:00
1:15 AM,23.0,19.4,86,30.27,10.0,South,4.6,-,N/A,,Clear,180,2013-01-07 07:15:00
1:35 AM,23.0,19.4,86,30.26,10.0,SSE,5.8,-,N/A,,Clear,150,2013-01-07 07:35:00
1:55 AM,23.0,19.4,86,30.26,10.0,Calm,Calm,-,N/A,,Clear,0,2013-01-07 07:55:00
2:15 AM,23.0,19.4,86,30.26,10.0,SSE,3.5,-,N/A,,Clear,160,2013-01-07 08:15:00
2:35 AM,23.0,19.4,86,30.25,10.0,Calm,Calm,-,N/A,,Clear,0,2013-01-07 08:35:00
2:55 AM,23.0,21.2,93,30.26,10.0,Calm,Calm,-,N/A,,Clear,0,2013-01-07 08:55:00
3:15 AM,23.0,21.2,93,30.26,10.0,Calm,Calm,-,N/A,,Clear,0,2013-01-07 09:15:00
3:35 AM,23.0,19.4,86,30.25,10.0,Calm,Calm,-,N/A,,Clear,0,2013-01-07 09:35:00
3:55 AM,23.0,19.4,86,30.25,10.0,Calm,Calm,-,N/A,,Clear,0,2013-01-07 09:55:00
4:15 AM,23.0,21.2,93,30.25,10.0,Calm,Calm,-,N/A,,Clear,0,2013-01-07 10:15:00
4:35 AM,23.0,19.4,86,30.24,10.0,SSE,3.5,-,N/A,,Clear,160,2013-01-07 10:35:00
4:55 AM,21.2,19.4,93,30.23,10.0,SSE,5.8,-,N/A,,Clear,150,2013-01-07 10:55:00
6:15 AM,21.2,19.4,93,30.22,10.0,Calm,Calm,-,N/A,,Clear,0,2013-01-07 12:15:00
6:50 AM,19.4,17.6,93,30.22,10.0,Calm,Calm,-,N/A,,Clear,0,2013-01-07 12:50:00
7:50 AM,21.2,19.4,93,30.23,10.0,SSE,4.6,-,N/A,,Scattered Clouds,150,2013-01-07 13:50:00
8:53 AM,24.8,21.2,86,30.24,10.0,South,5.8,-,N/A,,Mostly Cloudy,180,2013-01-07 14:53:00
9:50 AM,30.2,24.8,80,30.24,10.0,SSE,4.6,-,N/A,,Mostly Cloudy,160,2013-01-07 15:50:00
10:50 AM,37.4,28.4,70,30.28,10.0,South,9.2,-,N/A,,Mostly Cloudy,170,2013-01-07 16:50:00
12:55 PM,50.0,26.6,40,30.13,10.0,South,19.6,23.0,N/A,,Mostly Cloudy,190,2013-01-07 18:55:00
1:55 PM,50.0,26.6,40,30.10,10.0,SSW,18.4,23.0,N/A,,Mostly Cloudy,200,2013-01-07 19:55:00
2:50 PM,51.8,26.6,38,30.09,10.0,SSW,17.3,24.2,N/A,,Mostly Cloudy,200,2013-01-07 20:50:00
3:50 PM,51.8,26.6,38,30.10,10.0,SSW,17.3,-,N/A,,Mostly Cloudy,200,2013-01-07 21:50:00
7:50 PM,37.4,24.8,60,30.07,10.0,South,9.2,-,N/A,,Mostly Cloudy,190,2013-01-08 01:50:00
8:15 PM,33.8,26.6,75,30.06,10.0,SSW,5.8,-,N/A,,Clear,200,2013-01-08 02:15:00
8:35 PM,33.8,26.6,75,30.05,10.0,South,8.1,-,N/A,,Clear,190,2013-01-08 02:35:00
8:50 PM,33.8,24.8,70,30.05,10.0,South,9.2,-,N/A,,Scattered Clouds,190,2013-01-08 02:50:00
8:55 PM,32.0,26.6,80,30.05,10.0,South,6.9,-,N/A,,Clear,190,2013-01-08 02:55:00
9:15 PM,33.8,26.6,75,30.05,10.0,South,6.9,-,N/A,,Clear,190,2013-01-08 03:15:00
9:55 PM,32.0,26.6,80,30.05,10.0,South,9.2,-,N/A,,Clear,190,2013-01-08 03:55:00
10:15 PM,33.8,28.4,81,30.05,10.0,South,8.1,-,N/A,,Clear,190,2013-01-08 04:15:00
10:35 PM,33.8,26.6,75,30.04,10.0,South,10.4,-,N/A,,Clear,190,2013-01-08 04:35:00
10:55 PM,33.8,28.4,81,30.04,10.0,South,9.2,-,N/A,,Clear,180,2013-01-08 04:55:00
11:15 PM,32.0,28.4,87,30.04,10.0,South,8.1,-,N/A,,Clear,190,2013-01-08 05:15:00
11:35 PM,32.0,28.4,87,30.03,10.0,South,9.2,-,N/A,,Clear,180,2013-01-08 05:35:00